Showing default

R5-S2, 60207

Orbit data source: Space-Track

R5-S2, 60207 is a payload satellite owned by NASA JSC (US) in SSO that was launched on Thu, 04 Jul 2024 UTC via an FIREFLY ALPHA launch vehicle from the Air Force Western Test Range (AFWTR). Payload-class satellites include a variety of spacecraft equipped with specific instruments for various scientific and technological missions. These include communications satellites like Starlink; space stations such as the ISS; scientific satellites like the Hubble; Earth observation satellites from companies like Planet Labs, Umbra, and HawkEye 360; GPS; miniature CubeSats for education and research; and military/defense satellites.

Loading next visibility...
Identifier
60207, 2024-125E
Orbit
SSO
Country
Flag of USUS
Related business
Manufacturer
NASA JSC
Mission
Operational spacecraft
Bus & Motor
CUBESAT 6U, Unknown motor
Mass
10 kg wet, ~10 kg dry
Launch date (UTC)
2024-07-04 (1 year ago)
Launch vehicle
FIREFLY ALPHA
Launch site
Air Force Western Test Range (AFWTR)
Object type
Payload
Rocket body
Debris
Shape & HBR
Unknown
Radar Cross Section
Small (<0.1 m²)

Expand to show TLE details & history
Last TLE update: 9 hours ago

TLE from 9 hours ago
0 R5-S2
1 60207U 24125E   25258.57003112  .00015126  00000-0  45342-3 0  9996
2 60207  97.2704 107.9717 0021235 139.3175 220.9659 15.34354010 66922
Epoch: 2025-09-15T13:40Z
TLE epoch observation values (Epoch: 2025-09-15T13:40:50.688Z)
Latitude
-0.00007°
Longitude
-92.01228°
Altitude
476.939 km
Speed
7.621 km/s
True Right ascension
07h 11m 53s
True Declination
0° 00' 00"
Sunlit
Object was in daylight at epoch
Visualization orbit readout
Latitude
Unknown
Longitude
Unknown
Altitude
Unknown
Speed
Unknown
Apparent Right ascension
Unknown
Apparent Declination
Unknown
Sunlit
N/A
Visualization observer readout
Local Sidereal Time
15:48:21
Azimuth
Unknown
Elevation
Unknown
Doppler factor
Unknown
Orbital elements
Apogee altitude
474.301 km
Perigee altitude
445.261 km
Semi-major axis
6,837.918 km
Eccentricity
0.00212
Inclination
97.2704°
RAAN
107.9717°
Arg. of periapsis
139.3175°
True anomaly
220.80669°
Mean anomaly
220.9659°
Eccentric anomaly
220.88626°
Mean motion
3.83846 °/min
Orbital period
93.79 mins
BSTAR
0.00045342
Loading maneuver chart data...
Computing Atmospheric mass density...
Loading historical data...
Loading historical data...
Loading historical data...
Loading historical data...
Loading historical data...
Loading historical data...
Loading historical data...

Documentation

Showing up to 5 results
|